Temp
-9 -9 -10 -10 -9 -11 -11 -10 -11 -10 -9 -10 -10 -10 -10 -10 -10 -10 -10 -10 -10 -10 -11 -11 -11 -11 -11 -11 -12 -12 -12 -12 -12 -13 -13 -13 -12 -13 -13 -13 -14 -14 -14
-9 -10 -10 -10 -11 -11 -11 -11 -11 -10 -10 -10 -10 -10 -10 -10 -10 -11 -10 -10 -11 -11 -11 -11 -12 -12 -12 -12 -12 -12 -13 -13 -13 -12 -13 -13 -13 -13 -14 -14 -15 -15 -14
-9 -10 -11 -11 -10 -12 -12 -11 -10 -10 -10 -10 -10 -10 -10 -11 -11 -11 -10 -11 -11 -11 -12 -12 -12 -12 -12 -13 -12 -13 -13 -13 -12 -12 -13 -14 -15 -15 -15 -16 -16 -15 -15
-10 -10 -11 -11 -11 -11 -11 -11 -10 -10 -10 -10 -10 -10 -10 -11 -11 -11 -11 -11 -12 -12 -12 -12 -12 -12 -13 -13 -13 -13 -13 -12 -13 -13 -14 -15 -16 -16 -17 -15 -16 -16 -15
-9 -11 -11 -12 -11 -11 -11 -10 -10 -10 -10 -10 -10 -11 -11 -11 -11 -11 -12 -12 -12 -12 -13 -12 -13 -13 -13 -12 -12 -12 -12 -12 -12 -14 -15 -16 -16 -17 -16 -16 -15 -15 -14
-11 -12 -12 -12 -11 -11 -10 -10 -10 -10 -10 -10 -11 -11 -11 -11 -12 -12 -12 -12 -13 -13 -13 -13 -13 -12 -12 -12 -12 -12 -11 -12 -13 -15 -17 -16 -17 -17 -16 -16 -15 -15 -15
-12 -12 -11 -11 -11 -11 -10 -10 -10 -10 -10 -11 -11 -11 -12 -12 -12 -13 -13 -13 -13 -13 -13 -13 -12 -12 -12 -12 -12 -13 -14 -15 -16 -17 -17 -16 -17 -16 -16 -16 -16 -16 -15
-12 -12 -11 -11 -11 -11 -10 -10 -10 -11 -11 -11 -12 -12 -12 -12 -13 -13 -13 -13 -13 -13 -13 -12 -12 -12 -12 -12 -13 -15 -16 -17 -17 -17 -17 -16 -17 -16 -16 -16 -16 -16 -16
-12 -12 -12 -11 -11 -11 -11 -11 -11 -11 -12 -12 -12 -12 -13 -13 -13 -13 -13 -13 -13 -13 -13 -13 -13 -13 -13 -13 -15 -17 -17 -17 -17 -18 -17 -17 -17 -16 -16 -17 -17 -17 -17
-12 -12 -11 -11 -11 -11 -11 -11 -12 -12 -12 -12 -12 -13 -13 -14 -13 -14 -13 -13 -13 -13 -13 -13 -13 -13 -14 -15 -16 -17 -17 -18 -18 -19 -18 -17 -17 -17 -16 -17 -16 -16 -16
-12 -12 -12 -11 -11 -11 -11 -12 -13 -13 -13 -13 -13 -14 -14 -14 -14 -14 -14 -14 -13 -13 -13 -13 -14 -14 -15 -16 -16 -17 -17 -18 -18 -18 -18 -17 -17 -17 -17 -16 -16 -16 -16
-12 -12 -11 -11 -12 -12 -13 -13 -13 -13 -14 -14 -14 -14 -14 -14 -14 -14 -14 -14 -14 -13 -14 -14 -15 -15 -16 -16 -17 -17 -17 -18 -18 -18 -18 -17 -17 -17 -17 -16 -16 -16 -16
-12 -12 -12 -12 -12 -13 -14 -14 -14 -14 -14 -14 -14 -14 -14 -14 -14 -14 -14 -14 -14 -14 -14 -15 -16 -17 -17 -17 -17 -17 -18 -18 -18 -18 -18 -17 -17 -17 -17 -17 -16 -16 -15
-12 -12 -13 -13 -14 -14 -14 -14 -14 -14 -14 -14 -14 -14 -14 -14 -14 -14 -14 -15 -15 -15 -15 -16 -17 -17 -17 -18 -18 -17 -18 -18 -18 -18 -18 -17 -17 -17 -17 -16 -16 -16 -15
-13 -13 -13 -14 -14 -14 -14 -14 -14 -14 -14 -14 -14 -14 -14 -14 -14 -15 -15 -15 -16 -16 -17 -17 -18 -18 -18 -18 -18 -18 -18 -18 -18 -18 -18 -17 -17 -17 -16 -16 -16 -16 -15
-13 -13 -14 -14 -14 -14 -14 -14 -14 -14 -14 -14 -14 -14 -15 -15 -15 -15 -16 -16 -16 -17 -18 -18 -18 -18 -18 -18 -18 -18 -18 -18 -18 -18 -17 -17 -17 -17 -16 -16 -16 -16 -15
-14 -14 -14 -14 -14 -14 -14 -14 -14 -14 -14 -14 -15 -15 -15 -15 -16 -16 -16 -16 -17 -18 -18 -19 -19 -19 -19 -18 -18 -18 -18 -18 -18 -18 -17 -18 -17 -17 -16 -16 -16 -15 -15
-14 -14 -14 -14 -14 -14 -14 -14 -14 -14 -14 -15 -15 -15 -15 -15 -16 -16 -17 -18 -18 -19 -19 -19 -19 -19 -19 -19 -19 -19 -18 -18 -18 -18 -17 -18 -18 -17 -17 -16 -16 -15 -15
-14 -14 -14 -14 -14 -14 -14 -14 -14 -14 -15 -15 -15 -15 -15 -15 -16 -17 -18 -19 -19 -19 -20 -20 -20 -20 -20 -20 -19 -19 -19 -18 -18 -18 -18 -18 -18 -18 -17 -17 -16 -15 -15
-15 -15 -15 -14 -14 -14 -14 -15 -15 -15 -15 -15 -15 -15 -15 -16 -18 -19 -20 -20 -20 -20 -20 -21 -20 -20 -20 -20 -20 -20 -19 -19 -18 -18 -18 -18 -18 -18 -18 -17 -16 -16 -16
-15 -15 -14 -14 -14 -14 -15 -15 -15 -15 -15 -14 -14 -15 -16 -18 -19 -20 -20 -21 -21 -21 -21 -21 -21 -21 -21 -21 -21 -21 -20 -19 -19 -18 -18 -18 -18 -18 -18 -18 -17 -17 -16
-15 -15 -15 -14 -15 -15 -15 -15 -15 -15 -15 -15 -15 -16 -18 -19 -20 -21 -21 -21 -21 -21 -21 -21 -21 -21 -21 -21 -21 -21 -21 -21 -20 -19 -18 -18 -18 -18 -18 -18 -18 -17 -17
-15 -15 -15 -15 -15 -15 -15 -15 -15 -14 -15 -15 -15 -17 -19 -19 -20 -21 -22 -22 -22 -21 -21 -21 -21 -21 -21 -21 -21 -21 -21 -21 -20 -20 -19 -19 -18 -18 -18 -18 -18 -18 -18
-15 -15 -15 -15 -15 -15 -15 -15 -15 -15 -15 -15 -17 -19 -19 -20 -21 -21 -22 -22 -22 -21 -21 -21 -21 -21 -21 -21 -20 -21 -21 -22 -21 -20 -20 -19 -19 -18 -18 -18 -17 -17 -18
-15 -15 -15 -15 -15 -15 -15 -15 -15 -15 -15 -17 -19 -19 -20 -20 -21 -21 -21 -21 -21 -21 -21 -21 -21 -21 -21 -21 -21 -20 -20 -21 -21 -21 -20 -20 -19 -19 -18 -18 -18 -17 -17
-15 -15 -15 -15 -15 -15 -15 -15 -15 -15 -17 -19 -19 -20 -20 -21 -21 -21 -21 -21 -21 -21 -21 -21 -21 -21 -21 -21 -21 -20 -20 -20 -21 -21 -21 -20 -20 -19 -19 -18 -18 -18 -18
Height
5778 5781 5791 5796 5799 5805 5806 5812 5816 5819 5820 5819 5817 5816 5813 5810 5808 5806 5803 5800 5796 5790 5786 5780 5775 5768 5763 5756 5750 5742 5734 5727 5720 5711 5699 5688 5677 5667 5655 5642 5631 5623 5613
5771 5781 5785 5793 5798 5795 5805 5809 5813 5815 5814 5815 5813 5811 5808 5807 5803 5800 5798 5793 5788 5785 5779 5773 5767 5761 5755 5748 5741 5733 5725 5717 5709 5701 5687 5675 5663 5654 5641 5631 5622 5612 5603
5765 5774 5780 5788 5790 5795 5802 5805 5809 5809 5810 5809 5808 5805 5803 5800 5798 5795 5791 5787 5783 5778 5772 5766 5760 5754 5747 5740 5733 5725 5717 5707 5697 5685 5675 5661 5650 5640 5633 5620 5613 5605 5595
5760 5766 5771 5781 5787 5793 5798 5802 5804 5804 5803 5803 5801 5800 5798 5796 5793 5789 5785 5781 5776 5771 5765 5758 5753 5746 5740 5733 5726 5717 5707 5696 5684 5672 5660 5650 5641 5632 5623 5615 5609 5600 5591
5739 5761 5769 5776 5786 5792 5795 5797 5798 5798 5798 5798 5797 5795 5793 5790 5787 5782 5779 5774 5769 5763 5758 5753 5746 5739 5733 5726 5717 5707 5696 5683 5672 5660 5650 5642 5635 5627 5617 5609 5601 5595 5585
5742 5757 5767 5778 5783 5786 5790 5792 5793 5793 5793 5793 5791 5790 5787 5784 5780 5776 5772 5767 5762 5758 5753 5747 5742 5733 5724 5714 5704 5694 5683 5671 5659 5649 5641 5636 5629 5621 5613 5605 5597 5590 5584
5746 5759 5769 5773 5778 5782 5785 5786 5786 5787 5787 5787 5786 5783 5780 5778 5774 5770 5766 5762 5759 5754 5748 5741 5733 5726 5716 5704 5693 5680 5668 5657 5648 5641 5636 5630 5624 5617 5610 5603 5595 5587 5579
5751 5758 5763 5769 5775 5777 5779 5781 5782 5782 5782 5781 5779 5778 5775 5772 5769 5765 5762 5758 5754 5748 5741 5734 5726 5717 5707 5695 5682 5668 5659 5650 5643 5637 5632 5626 5620 5615 5607 5599 5592 5584 5577
5749 5756 5762 5767 5770 5772 5775 5776 5777 5777 5777 5776 5774 5772 5770 5767 5764 5761 5758 5754 5748 5742 5734 5726 5717 5707 5697 5686 5673 5662 5652 5644 5639 5634 5628 5624 5619 5614 5608 5603 5596 5589 5581
5748 5754 5759 5762 5766 5769 5771 5772 5772 5772 5771 5770 5769 5767 5766 5763 5760 5757 5753 5747 5742 5735 5728 5718 5709 5700 5688 5676 5664 5656 5648 5642 5638 5635 5629 5624 5619 5613 5607 5602 5598 5591 5585
5748 5752 5756 5760 5763 5766 5767 5767 5767 5767 5766 5766 5765 5763 5761 5759 5756 5751 5747 5742 5736 5727 5718 5710 5701 5691 5679 5669 5659 5652 5646 5642 5638 5633 5628 5623 5618 5613 5608 5604 5600 5593 5586
5746 5751 5753 5757 5760 5762 5763 5763 5763 5763 5762 5762 5761 5759 5758 5755 5751 5746 5741 5735 5727 5718 5710 5703 5693 5682 5672 5663 5655 5648 5644 5640 5636 5632 5628 5622 5619 5614 5610 5606 5600 5594 5588
5744 5748 5751 5754 5756 5758 5759 5759 5759 5760 5760 5759 5757 5756 5753 5750 5746 5741 5735 5728 5719 5711 5704 5696 5686 5676 5667 5658 5651 5645 5642 5639 5636 5631 5628 5623 5619 5615 5611 5606 5601 5596 5590
5743 5747 5750 5752 5753 5754 5756 5757 5757 5757 5756 5755 5754 5752 5749 5745 5740 5734 5727 5719 5712 5704 5696 5687 5679 5671 5664 5657 5650 5645 5642 5639 5635 5632 5627 5623 5619 5616 5613 5609 5604 5598 5592
5742 5744 5746 5749 5751 5752 5753 5753 5753 5753 5753 5752 5750 5748 5744 5739 5733 5726 5719 5711 5703 5696 5688 5681 5673 5666 5660 5654 5648 5643 5641 5638 5635 5632 5627 5623 5620 5618 5615 5611 5607 5601 5596
5739 5742 5744 5746 5748 5749 5749 5750 5750 5751 5750 5748 5746 5742 5737 5732 5726 5719 5710 5703 5696 5689 5682 5676 5670 5663 5656 5650 5646 5642 5639 5637 5634 5632 5628 5623 5622 5619 5616 5613 5609 5605 5600
5736 5739 5742 5744 5745 5746 5747 5748 5748 5748 5746 5744 5740 5736 5731 5725 5717 5710 5703 5695 5689 5682 5677 5671 5665 5659 5653 5647 5643 5639 5637 5636 5633 5631 5629 5625 5623 5620 5618 5615 5612 5608 5605
5736 5739 5740 5742 5743 5744 5745 5746 5746 5744 5742 5739 5735 5730 5723 5716 5709 5702 5695 5688 5682 5677 5672 5666 5661 5655 5650 5644 5640 5636 5634 5634 5632 5630 5629 5626 5623 5621 5619 5617 5615 5612 5609
5734 5736 5738 5740 5742 5743 5743 5743 5742 5740 5738 5734 5729 5722 5716 5709 5702 5694 5687 5681 5677 5673 5668 5663 5658 5653 5647 5641 5637 5634 5632 5632 5631 5629 5628 5626 5625 5622 5620 5619 5618 5616 5613
5733 5735 5737 5739 5740 5741 5741 5740 5739 5736 5732 5728 5722 5714 5708 5701 5694 5687 5681 5676 5672 5668 5664 5660 5655 5651 5645 5640 5635 5632 5631 5630 5629 5628 5627 5625 5625 5624 5622 5620 5619 5618 5617
5731 5733 5735 5737 5738 5739 5738 5736 5734 5731 5726 5720 5714 5707 5700 5694 5687 5681 5677 5672 5668 5665 5661 5657 5652 5649 5644 5639 5634 5630 5629 5628 5627 5626 5626 5625 5624 5624 5623 5622 5621 5620 5619
5729 5731 5734 5735 5736 5735 5734 5732 5729 5724 5719 5712 5706 5699 5693 5687 5682 5677 5672 5668 5665 5661 5658 5654 5650 5647 5643 5639 5634 5630 5628 5627 5626 5625 5625 5624 5624 5623 5623 5622 5622 5621 5620
5728 5730 5731 5732 5732 5732 5730 5727 5722 5717 5711 5706 5700 5694 5688 5682 5677 5672 5668 5665 5662 5658 5656 5652 5649 5645 5642 5638 5635 5632 5629 5627 5626 5625 5624 5624 5623 5623 5623 5623 5622 5621 5621
5726 5727 5729 5729 5728 5727 5724 5720 5716 5711 5706 5701 5695 5690 5685 5680 5675 5670 5665 5662 5659 5656 5654 5651 5647 5644 5640 5638 5635 5633 5630 5628 5626 5625 5624 5624 5623 5622 5622 5622 5622 5622 5621
5724 5726 5726 5726 5724 5722 5719 5715 5711 5707 5701 5696 5691 5687 5683 5678 5673 5668 5664 5660 5657 5654 5652 5649 5646 5642 5639 5637 5635 5633 5631 5628 5627 5625 5624 5624 5623 5623 5622 5622 5621 5621 5621
5722 5723 5722 5721 5719 5716 5714 5711 5707 5701 5696 5691 5688 5684 5680 5675 5670 5665 5661 5658 5654 5652 5649 5647 5644 5641 5638 5636 5633 5631 5630 5628 5627 5625 5624 5624 5623 5623 5622 5622 5622 5621 5621
Wind_Speed
54 51 49 45 44 36 24 38 31 28 23 16 15 18 17 19 21 21 23 25 27 29 31 35 38 41 43 45 45 46 48 49 50 54 60 64 66 68 66 64 61 55 52
55 53 53 43 46 17 24 28 28 27 20 17 18 19 18 20 21 22 26 28 29 31 34 37 39 40 41 43 45 46 48 51 54 58 64 67 69 68 63 60 57 51 49
51 49 50 31 23 20 30 27 27 24 20 18 20 19 21 22 23 26 28 29 31 35 37 38 39 40 41 43 45 47 51 56 61 64 67 65 61 60 56 52 48 48 44
48 52 34 27 24 28 27 27 24 22 19 19 19 21 23 23 26 28 30 31 35 38 38 39 38 39 41 44 48 53 57 62 65 65 63 57 53 50 46 43 45 40 39
44 41 20 20 29 26 25 23 21 19 17 18 20 23 23 25 28 30 31 34 37 37 37 37 38 42 47 51 55 59 63 64 65 62 55 47 46 39 40 42 40 35 37
21 17 24 26 24 16 21 19 17 16 18 19 21 23 25 27 28 30 33 36 36 35 35 38 42 46 50 53 55 60 61 62 60 52 43 42 38 38 35 36 36 33 28
21 25 26 21 15 19 18 16 15 17 18 20 24 25 27 28 29 31 33 33 32 33 37 40 42 47 52 59 62 62 60 56 48 39 36 36 36 30 30 30 32 31 28
27 24 19 14 14 13 14 15 17 18 19 22 25 27 27 28 30 31 29 28 31 34 39 42 48 51 57 63 59 55 53 47 37 32 34 33 29 29 28 31 35 34 28
23 17 14 13 10 11 12 14 16 19 21 24 26 26 26 28 28 25 25 28 34 37 42 47 51 55 60 59 52 49 45 38 29 30 33 35 23 27 23 26 28 30 33
16 14 12 9 9 11 13 14 17 20 22 24 24 23 25 25 22 23 27 33 37 41 44 49 55 57 60 53 47 41 36 27 24 26 32 32 20 24 24 30 27 29 27
15 13 11 10 11 12 14 16 18 21 22 21 22 22 22 19 21 25 31 34 40 45 49 55 56 57 56 50 40 32 24 22 21 27 33 17 17 22 22 24 24 24 22
15 14 10 11 12 14 15 18 20 19 19 20 20 19 18 20 24 30 31 38 44 49 53 57 52 52 51 43 34 26 21 20 23 29 27 12 15 19 20 18 24 28 26
14 12 12 12 13 15 17 19 17 17 17 18 17 16 19 23 26 29 35 41 46 51 54 51 46 45 46 37 30 22 18 21 24 27 21 9 13 15 19 21 24 30 25
14 12 13 14 17 19 17 15 18 20 16 14 14 16 20 26 28 34 38 43 48 52 52 48 41 41 39 33 29 21 15 20 21 22 21 7 11 12 16 20 23 29 24
15 17 17 17 18 17 17 18 14 15 14 13 16 20 24 28 33 36 39 45 48 48 42 39 40 40 33 29 24 16 13 18 16 16 25 9 8 12 15 19 24 28 24
18 18 20 18 17 16 15 13 14 12 12 14 19 24 28 32 34 37 41 44 45 42 37 39 39 36 32 25 21 15 14 16 15 12 19 12 8 11 14 18 21 25 22
21 20 18 16 12 12 12 11 9 10 14 18 23 27 30 33 37 40 43 45 39 36 38 39 37 32 31 24 18 15 13 14 15 11 12 18 8 9 13 17 20 21 18
17 15 11 11 11 10 8 7 9 14 18 21 27 29 33 39 44 46 46 38 33 36 35 33 32 30 31 23 17 13 10 10 13 11 9 13 11 9 12 14 16 19 16
12 11 11 10 8 7 6 8 13 17 21 26 29 35 41 46 47 45 38 33 33 30 28 29 27 28 30 26 17 13 9 9 11 11 9 8 13 11 11 11 11 14 17
14 10 9 7 5 5 7 11 16 21 25 30 36 43 49 50 45 39 34 31 28 25 26 25 24 25 27 28 21 13 10 9 8 9 11 8 8 11 12 8 8 11 13
11 10 7 6 5 7 11 15 20 25 30 36 43 49 51 47 39 33 31 27 25 25 23 22 22 23 22 26 23 13 10 9 8 7 8 9 6 7 11 7 4 7 8
11 9 7 4 6 10 14 19 25 30 36 41 47 50 45 39 35 31 29 27 25 23 21 21 21 21 21 21 25 15 6 7 6 6 6 6 5 6 5 9 2 3 4
9 8 5 5 7 13 20 25 29 35 41 47 51 46 35 33 31 28 26 24 22 21 21 20 20 20 19 18 20 20 10 6 6 6 5 5 4 4 6 4 5 1 2
9 6 5 7 13 18 22 28 34 40 45 47 41 31 30 29 26 25 24 22 21 20 20 20 21 19 19 18 17 18 16 15 4 6 8 5 4 2 3 5 4 2 2
7 5 5 11 16 21 26 31 37 40 44 38 27 27 27 26 25 24 24 22 21 20 19 19 20 20 19 18 17 16 14 13 12 3 6 9 6 4 2 1 3 4 5
6 5 9 15 18 22 27 32 38 41 34 25 25 25 25 26 25 24 23 22 21 20 19 19 19 19 19 18 17 16 15 11 12 10 6 4 7 5 3 2 1 1 2
Wind_Direction
220 226 230 232 234 242 267 269 283 284 281 288 290 293 304 311 313 311 309 309 308 310 309 308 308 308 305 304 305 306 307 307 308 309 312 316 317 319 320 319 318 316 314
217 223 229 234 241 272 269 269 277 275 278 284 298 302 307 307 311 311 312 313 312 310 310 312 311 309 308 308 310 310 309 310 312 313 315 316 318 319 321 316 318 316 319
211 220 226 226 245 258 262 267 268 266 279 290 296 308 310 313 311 312 314 313 311 313 315 316 315 314 313 313 312 312 315 314 314 316 315 317 320 321 319 320 319 323 325
206 214 209 223 246 253 255 261 259 271 281 292 304 308 308 308 312 313 311 312 315 318 319 319 318 316 316 316 317 315 314 314 314 314 315 319 322 322 323 321 325 328 329
199 207 209 230 241 242 250 255 261 271 283 296 302 304 304 309 312 311 314 318 320 320 322 321 322 322 322 319 317 318 317 315 313 314 316 322 323 326 325 328 329 337 333
166 199 224 226 229 237 250 252 263 273 288 298 299 301 305 308 310 314 319 321 322 324 324 326 326 325 325 325 323 321 319 316 314 316 322 323 331 332 335 332 339 343 345
191 208 215 221 230 242 247 257 269 281 293 295 298 303 306 309 314 320 321 321 324 329 326 325 328 328 330 332 329 324 321 322 320 323 322 331 340 341 340 346 351 353 356
207 210 215 222 228 240 256 267 275 284 287 295 300 303 308 313 318 319 320 325 327 324 323 324 324 327 330 333 329 326 325 325 324 321 330 344 349 352 350 355 359 2 7
208 213 220 225 237 252 264 267 273 282 289 294 298 304 309 316 317 319 324 325 321 323 327 331 332 334 337 336 329 324 324 324 323 333 337 345 347 350 352 1 6 12 9
210 216 222 233 243 253 261 269 277 284 289 294 299 307 314 312 314 321 322 319 326 330 333 334 338 340 342 337 332 328 327 325 331 339 333 340 349 353 347 360 7 3 9
207 213 225 238 251 261 267 274 281 285 289 296 304 310 307 309 318 320 322 329 336 338 338 340 341 347 345 338 334 331 332 330 338 339 339 341 348 349 353 353 5 10 12
205 218 229 250 260 266 271 276 278 283 292 300 306 304 306 315 320 322 325 333 339 341 340 339 344 346 343 339 335 333 335 337 341 337 342 341 347 353 7 12 15 11 13
208 220 235 250 259 266 270 272 280 290 296 304 299 304 316 323 323 323 329 337 342 342 341 343 342 339 340 337 336 337 338 337 339 337 352 344 352 7 11 360 2 3 11
207 222 236 242 247 256 267 273 281 292 299 295 301 311 314 324 327 330 338 341 341 340 340 341 336 335 339 335 334 335 335 337 342 345 1 343 0 10 6 4 4 4 5
214 226 236 243 247 253 269 280 291 296 290 298 309 315 323 328 332 334 338 343 341 341 338 332 328 333 334 329 330 328 327 339 339 343 1 348 0 353 6 4 2 7 18
222 231 231 238 251 267 280 289 286 280 295 309 317 325 329 330 332 337 341 339 337 335 329 326 328 331 332 328 325 323 317 331 337 327 355 354 0 354 1 5 11 11 39
223 227 235 248 269 277 275 271 270 296 314 316 324 328 328 331 337 338 338 336 332 327 324 327 329 333 335 329 323 321 320 328 343 324 353 1 348 353 359 6 13 20 52
225 233 237 266 259 259 257 269 300 314 321 325 326 328 339 340 339 336 333 329 322 322 327 329 334 334 340 335 327 324 312 317 338 328 349 3 4 0 4 15 18 28 64
218 246 250 244 237 243 269 292 312 322 328 326 332 339 340 337 334 331 327 320 320 326 329 331 333 336 343 345 332 323 318 315 330 340 338 11 6 18 9 12 20 32 54
229 224 212 216 226 274 295 309 323 331 334 335 337 340 337 335 333 327 321 321 323 325 330 336 335 334 342 350 342 325 318 312 317 326 332 345 3 14 13 13 34 33 41
206 196 207 213 262 301 319 333 334 333 331 336 338 336 336 334 330 324 323 323 324 325 330 335 340 338 341 348 350 337 322 319 319 311 318 329 343 345 10 10 27 41 38
188 201 208 245 304 328 336 331 330 331 335 338 336 336 337 337 332 326 330 330 328 329 331 337 339 340 345 348 356 352 343 354 337 326 320 316 295 289 330 8 315 58 48
200 205 222 293 325 325 324 329 334 338 338 336 332 335 340 341 340 335 336 336 335 337 337 338 337 341 344 353 350 358 355 9 25 13 350 337 320 269 278 331 8 16 35
202 219 267 305 317 327 330 336 341 340 335 329 335 342 342 341 343 343 342 338 337 336 338 342 342 342 342 347 351 349 2 19 343 33 25 14 4 336 276 272 293 347 47
213 244 285 313 324 330 334 338 338 333 328 331 339 339 337 344 345 342 340 339 334 332 334 336 339 342 342 343 344 346 345 359 5 354 22 15 14 18 14 327 288 277 303
237 269 312 320 328 333 331 331 331 329 329 333 335 333 336 338 337 337 336 336 334 329 330 333 335 339 340 340 340 341 343 340 353 345 336 334 1 1 6 10 340 335 355